sat.trackr.live / text

‹ back to catalog

STARLINK-36919

NORAD 68053 · 2026-041P

PAYLOAD ACTIVE UNKNOWN

§ Identity

Operator
Country
US
Launch date
2026-03-02
Launch site
AFETR
Launch vehicle
Mass (kg)
RCS (m²)

Purposes: comms

External: N2YO · Heavens-Above · Gunter

§ Orbital elements

Epoch: 2026-05-25T03:23:52.016928Z

Period
94.10 min
Inclination
53.1603°
Eccentricity
0.0001075
Mean motion
15.30212378 rev/d
Perigee alt
474.4 km
Apogee alt
475.9 km
Semi-major
6,853.3 km
B*
6.0812e-4
RAAN
54.7408°
Arg perigee
73.3563°
Mean anomaly
286.7556°
Rev number
1,309

§ Raw data

STARLINK-369191 68053U 26041P   26145.14157427  .00017702  00000+0  60812-3 0  99902 68053  53.1603  54.7408 0001075  73.3563 286.7556 15.30212378 13094

JSON: /api/v1/satellites/68053 · /tle

For live sub-satellite position, see the globe view (requires WebGL).

§ Visibility from observer

Set your observer location to see the next 7 days of passes ≥ 10°. The values pass through the URL so the page stays shareable.

No JS? Fill the form by hand. The geolocation button needs JavaScript.